SCP
-0 -0 0 -0 0 -0 0 0 0 0 0 0 0 0 0 0 0 0 0 0 0 0 0 0 0 0 0 -0 0 0 0 1 1 1 0 0 0 0 0 0 0 0 0 0
-0 0 0 -0 -0 -0 0 0 0 0 0 0 0 0 0 0 0 0 0 0 0 0 0 0 0 0 0 0 0 0 0 0 1 0 0 0 0 0 0 0 0 0 0 0
-0 0 0 0 0 0 0 0 0 0 0 0 0 0 0 0 0 0 0 0 0 0 0 0 0 0 0 0 0 0 0 0 0 0 0 0 0 0 0 0 0 0 0 0
-0 0 0 -0 0 0 0 0 0 0 0 0 0 0 0 0 0 0 0 0 0 0 0 0 0 1 0 0 0 0 0 0 0 1 0 0 0 0 0 0 0 0 0 0
0 0 0 0 0 0 0 0 0 0 0 0 0 -0 0 0 0 0 0 0 0 0 0 0 0 0 0 1 0 1 1 1 0 0 0 0 0 0 0 0 0 0 0 0
-0 0 0 0 0 0 0 0 0 0 0 -0 0 0 -0 0 0 0 0 0 0 0 0 0 0 1 1 1 0 1 1 1 0 0 0 0 0 0 0 0 0 0 0 0
0 0 0 0 0 0 0 0 0 0 0 -0 0 0 0 0 0 0 0 0 0 0 0 0 0 0 1 1 1 1 0 0 0 0 0 0 0 0 0 0 0 0 0 0
-0 0 0 0 0 0 0 0 0 -0 0 0 0 0 0 0 0 0 0 0 0 0 0 0 0 0 0 0 1 0 0 0 0 0 0 0 0 0 0 0 0 0 0 0
0 0 0 0 0 0 0 0 0 0 0 0 0 0 0 0 0 0 0 0 0 0 0 0 0 0 0 0 0 -0 0 0 0 0 0 1 0 0 0 0 0 0 0 0
0 -0 0 0 0 0 0 0 0 0 0 0 0 0 0 0 0 0 0 0 0 0 0 0 0 0 0 1 1 0 0 0 0 0 0 0 0 0 0 0 0 0 0 0
-0 0 0 0 0 0 0 0 0 0 0 0 0 0 0 0 0 0 0 0 0 0 0 0 0 0 0 0 0 1 1 1 1 1 0 0 0 0 0 0 0 0 0 0
0 0 -0 0 0 0 0 0 0 0 0 0 0 0 0 0 0 0 0 0 0 0 0 0 0 0 0 0 0 1 1 1 1 1 0 0 0 0 0 0 0 0 0 0
0 0 0 0 0 0 0 0 0 0 0 0 0 0 0 0 0 0 0 0 0 0 0 0 0 0 0 0 0 1 1 1 0 0 0 0 0 0 0 0 0 0 0 0
0 0 0 0 0 0 0 0 0 0 0 0 0 0 0 0 0 1 0 0 0 0 0 0 0 0 0 0 0 1 1 0 0 0 0 0 0 0 0 0 0 0 0 0
0 0 0 0 0 0 0 0 0 0 0 0 -0 0 0 0 0 0 0 0 0 0 0 0 0 0 0 0 0 1 0 0 0 0 0 0 0 0 0 0 0 0 0 0
0 0 0 0 0 0 0 0 0 0 0 0 0 -0 0 0 0 0 0 0 0 0 0 0 0 0 0 0 0 1 0 0 0 0 0 0 0 0 0 0 0 0 0 0
0 0 0 0 0 0 0 0 0 0 0 0 -0 0 0 0 0 0 0 0 0 0 0 0 0 0 0 0 1 0 0 0 0 0 0 0 0 0 0 0 0 0 0 0
0 0 0 0 0 0 0 0 0 0 0 -0 0 0 0 0 0 0 0 0 0 0 0 0 0 0 0 0 0 0 0 0 0 0 0 0 0 0 0 0 0 0 0 0
0 0 0 0 0 0 -0 0 0 0 0 0 0 0 0 0 0 0 0 0 0 0 0 0 0 0 0 0 0 0 0 0 0 0 0 0 0 0 0 0 0 0 0 0
0 0 0 0 0 0 0 0 0 0 0 0 0 0 0 0 0 0 0 0 0 0 0 0 0 0 0 0 0 0 0 0 0 0 0 0 0 0 0 0 0 0 0 0
0 0 0 0 0 0 0 0 0 0 0 0 0 0 0 0 0 1 0 0 0 0 0 0 0 0 0 0 0 0 0 0 0 0 0 0 0 0 0 0 0 0 0 0
0 0 0 0 0 0 0 0 0 0 0 1 0 0 0 0 1 0 0 0 1 1 1 0 0 0 0 0 0 0 0 0 0 0 0 0 0 0 0 0 0 0 0 0
0 0 0 0 0 0 0 -0 0 0 0 1 1 0 0 0 0 0 0 1 1 1 1 0 0 0 0 0 0 0 0 0 0 0 0 0 0 0 0 0 0 0 0 0
1 0 0 1 0 0 0 0 0 0 0 0 0 0 0 0 0 0 1 1 1 1 1 1 1 0 0 0 0 0 0 0 0 0 0 0 0 0 0 0 0 0 0 0
0 1 1 1 0 0 1 1 1 1 1 0 0 0 0 0 0 1 1 1 1 1 1 1 1 0 0 0 0 0 0 0 0 0 0 0 0 0 0 0 0 0 0 0
1 0 0 0 1 1 0 0 0 1 1 1 1 0 0 1 1 1 1 1 2 2 1 1 1 0 0 0 0 0 0 0 0 0 0 0 0 0 0 0 0 0 0 0
Wind_Speed_500mb
1 20 12 17 15 13 9 14 16 1 4 13 9 8 6 5 6 13 9 6 8 6 9 4 10 17 20 23 23 13 11 28 35 32 21 17 17 17 21 21 23 19 17 18
17 16 9 14 6 10 11 17 17 5 4 13 9 10 7 8 12 8 3 8 2 5 12 7 4 15 16 15 15 10 12 19 29 25 21 17 13 16 18 20 23 22 21 20
20 11 2 11 14 12 17 16 23 17 2 4 18 11 17 16 11 9 5 9 4 4 6 7 5 5 12 11 8 11 12 14 21 33 33 28 26 18 17 19 19 22 25 24
17 4 11 20 17 12 27 12 13 8 15 15 13 8 17 7 2 4 3 6 3 2 5 8 8 11 9 7 4 1 9 15 21 30 31 31 22 17 15 18 19 22 25 26
6 10 15 21 11 13 14 10 8 8 11 14 5 21 23 10 11 8 5 7 6 6 8 10 8 12 12 15 12 7 12 19 26 27 34 33 28 23 16 22 21 23 27 26
24 4 11 6 10 2 10 8 10 8 8 19 11 11 21 17 14 13 17 15 11 12 13 15 13 12 12 14 19 15 17 17 19 26 30 33 33 32 21 24 22 20 24 26
18 16 9 7 8 10 9 17 5 7 4 13 6 11 15 14 8 7 9 14 15 15 20 22 20 18 17 20 20 21 23 19 14 23 27 29 24 30 28 30 25 24 20 23
11 18 17 6 9 14 10 10 14 21 12 3 10 6 14 11 9 7 5 9 16 21 23 25 24 23 23 14 16 23 29 29 25 26 25 29 28 27 25 29 26 22 21 24
7 7 13 4 4 10 10 13 9 13 9 20 3 11 11 17 14 11 14 15 20 22 24 25 26 27 27 21 15 10 22 25 27 29 28 30 29 28 25 23 32 26 29 26
6 17 6 10 8 6 13 5 10 15 13 16 3 10 12 18 14 9 12 18 19 19 22 23 27 30 31 28 21 12 15 20 24 22 21 22 22 26 24 21 19 24 27 30
20 12 7 11 12 13 8 15 7 10 10 18 14 9 12 16 12 10 14 14 14 15 19 24 25 27 30 32 27 19 11 11 12 13 16 17 22 24 23 25 19 16 25 31
18 9 14 7 9 4 9 9 7 14 4 8 16 20 9 13 10 11 12 10 11 14 20 22 22 24 27 30 29 23 13 11 11 13 15 16 17 20 24 26 27 20 26 26
16 11 14 18 19 13 12 7 2 5 9 22 18 6 7 19 14 10 8 6 6 14 18 19 21 23 25 29 29 22 15 11 15 14 15 13 14 18 21 21 23 23 24 28
13 7 15 19 19 12 8 15 11 11 13 19 20 9 14 17 17 12 6 2 12 14 16 18 20 23 25 29 28 17 12 16 17 15 15 15 15 15 19 19 20 24 24 22
8 12 12 10 8 12 14 15 12 17 22 18 29 19 9 17 15 11 5 3 7 12 16 20 20 21 25 27 22 12 15 18 15 14 15 17 20 15 14 17 19 22 22 23
9 8 10 15 10 14 17 18 18 21 24 24 25 23 6 17 14 13 7 4 8 12 17 18 19 20 24 23 16 11 15 15 13 12 10 13 17 18 18 15 10 10 11 18
9 6 10 20 3 12 19 25 21 18 18 20 21 17 19 20 19 12 7 6 8 11 16 18 18 19 20 16 10 10 12 11 10 10 12 14 15 16 18 17 13 8 11 12
9 9 5 9 6 20 7 2 9 17 24 20 22 14 18 19 14 11 6 5 7 9 14 15 16 17 14 9 10 11 13 8 8 10 10 13 12 14 17 16 16 15 12 11
8 11 6 10 16 14 25 12 9 12 16 11 18 15 21 14 12 17 11 9 8 8 10 12 12 10 9 9 13 12 11 9 8 6 7 11 12 14 17 18 18 18 16 15
8 8 13 6 14 21 21 8 8 7 19 10 20 21 26 22 17 9 12 12 11 9 9 10 10 9 9 12 12 11 14 8 7 5 7 9 10 14 18 19 19 20 19 20
12 9 15 11 14 16 15 11 15 14 4 8 19 24 29 23 18 10 11 13 14 13 12 11 9 10 11 11 11 10 10 9 9 7 11 13 16 23 20 23 23 22 22 24
14 13 14 6 14 22 8 12 15 15 7 3 15 24 33 32 19 19 17 17 17 17 15 14 13 14 13 11 10 12 11 10 7 9 13 15 18 20 18 22 21 20 19 22
12 8 11 7 15 4 3 30 15 18 17 8 13 23 31 31 31 27 26 25 22 22 20 18 16 16 13 11 10 12 15 11 11 12 12 13 17 16 18 19 18 18 21 24
9 7 9 5 15 12 21 21 28 30 33 26 17 22 28 34 30 31 30 30 28 27 25 20 18 16 14 12 10 12 12 12 12 15 14 14 13 20 16 16 18 20 22 24
9 14 12 14 24 18 5 10 17 25 25 28 34 32 33 34 35 33 33 35 35 31 27 23 22 19 16 14 11 11 11 12 11 12 15 16 15 17 17 19 20 20 19 19
22 23 18 20 13 9 22 21 34 31 24 20 23 26 33 37 40 37 38 38 40 37 31 27 24 22 21 17 14 12 12 10 12 13 14 17 16 19 20 23 22 24 21 23
Wind_Direction_500mb
141 283 18 0 0 353 326 303 301 63 43 297 5 316 108 162 213 176 207 200 215 268 187 145 52 45 52 74 71 91 197 224 220 223 213 225 240 248 238 230 225 225 227 239
237 242 24 335 338 309 308 303 277 193 152 288 3 335 65 140 120 145 197 194 146 136 180 180 63 43 48 57 83 107 161 208 220 219 215 219 248 261 247 246 238 236 238 237
281 339 0 295 289 269 275 311 310 314 69 186 306 168 120 125 133 132 130 175 152 51 226 228 268 15 32 30 62 123 165 186 209 220 231 245 259 273 260 248 251 249 245 240
271 66 258 287 273 305 294 358 276 260 274 352 2 340 111 150 96 185 137 139 57 20 335 252 254 259 309 347 335 179 153 192 217 230 225 238 228 234 243 237 239 233 246 241
272 269 266 277 7 314 330 308 240 220 265 294 150 283 104 158 137 80 83 72 55 4 346 349 295 264 282 282 287 272 213 215 222 234 232 247 243 251 262 236 238 250 241 247
273 291 267 4 31 305 133 160 196 198 275 265 78 299 107 79 47 68 65 61 53 29 0 357 332 298 289 264 262 239 229 225 243 243 249 255 256 266 249 229 228 234 241 249
199 223 147 206 168 158 249 219 223 258 302 290 123 252 47 78 54 19 37 50 39 14 9 359 354 343 320 285 257 233 238 251 285 255 253 269 269 264 268 227 233 223 236 233
259 169 177 154 302 338 241 298 307 304 292 0 153 264 96 78 68 112 101 50 32 12 7 7 8 10 5 352 263 238 245 261 290 284 261 273 275 271 259 233 226 231 228 238
224 228 118 47 160 288 121 246 16 288 211 267 48 148 137 140 114 118 81 51 39 39 36 31 26 23 19 16 11 290 249 262 276 285 258 273 278 280 256 247 252 239 238 241
265 275 104 121 183 115 289 68 231 201 276 289 142 240 121 174 136 102 68 63 65 46 31 25 16 14 9 4 358 323 283 287 294 294 284 274 265 278 256 249 258 242 245 253
241 255 199 203 206 336 180 209 249 298 292 308 293 71 80 117 103 94 91 84 67 40 22 11 10 10 8 6 356 346 329 320 314 313 309 280 267 272 259 256 256 265 261 259
199 249 249 292 81 297 293 327 275 284 162 242 300 296 89 126 124 125 114 93 56 31 14 6 3 4 4 3 2 355 358 2 350 348 328 309 285 273 266 262 258 257 262 265
171 210 244 201 184 182 238 170 256 285 280 272 294 29 127 134 146 152 132 103 57 3 9 2 2 2 359 356 355 355 5 6 355 349 349 328 311 287 276 262 250 263 284 275
190 207 260 297 350 329 210 211 218 242 278 318 267 305 149 165 169 165 156 11 12 358 1 1 358 355 353 351 351 0 11 7 356 3 0 344 330 306 289 274 259 251 272 271
222 239 233 274 263 241 277 268 216 248 280 276 303 316 155 185 181 172 165 352 347 352 350 352 348 347 346 347 347 351 6 357 6 5 6 22 16 2 326 305 288 276 290 278
190 243 262 255 229 240 251 263 261 272 281 281 274 273 151 170 178 187 190 255 322 347 344 342 338 338 341 340 336 341 0 354 358 358 5 2 3 7 12 9 349 302 279 262
204 176 233 266 172 254 251 260 285 276 275 265 269 334 154 178 202 199 204 256 318 329 333 335 332 335 331 335 331 335 348 338 344 0 353 358 19 27 24 22 23 0 314 292
187 197 239 287 219 246 340 73 281 280 281 265 256 266 194 193 195 203 218 289 295 311 324 327 327 327 320 316 314 323 327 316 336 355 9 26 30 23 17 16 10 2 341 323
269 227 195 245 242 284 285 184 226 233 290 236 246 210 194 187 202 222 226 235 257 285 305 314 316 313 303 295 309 313 311 298 325 345 19 17 2 348 351 352 354 347 340 326
192 251 247 169 274 279 305 126 186 196 265 144 206 203 198 193 231 143 184 220 233 253 274 292 290 294 301 292 302 302 297 286 310 320 350 344 340 336 330 328 326 324 322 321
174 207 239 247 276 289 335 158 162 239 28 127 193 207 203 210 262 132 182 211 222 237 254 267 266 286 283 275 284 294 292 277 281 294 328 324 324 331 329 329 323 317 312 306
236 237 237 219 268 282 58 159 241 2 339 266 212 210 211 220 220 210 214 221 227 234 247 254 256 274 269 269 276 291 286 264 298 314 317 317 319 324 320 330 330 320 317 320
237 280 300 272 306 47 237 252 262 281 294 306 276 232 222 224 228 229 230 229 232 236 245 247 252 266 267 267 273 288 292 280 277 301 305 313 321 323 330 334 334 338 325 324
185 197 243 281 269 273 285 292 269 277 266 280 279 263 236 234 241 239 239 236 236 238 239 242 245 254 255 257 273 280 280 280 276 287 299 309 317 324 330 338 325 327 326 324
328 160 238 255 266 290 136 12 350 329 300 279 269 273 244 241 248 248 247 243 241 239 238 232 237 242 240 250 269 273 277 273 269 273 285 298 309 309 319 322 322 331 325 332
212 252 239 273 12 305 297 313 320 312 311 302 285 267 253 246 251 253 251 248 241 235 232 229 232 230 231 239 256 265 261 260 265 271 290 295 307 312 318 320 324 323 331 350
Wind_Speed_850mb
1 20 12 17 15 13 9 14 16 1 4 13 9 8 6 5 6 13 9 6 8 6 9 4 10 17 20 23 23 13 11 28 35 32 21 17 17 17 21 21 23 19 17 18
17 16 9 14 6 10 11 17 17 5 4 13 9 10 7 8 12 8 3 8 2 5 12 7 4 15 16 15 15 10 12 19 29 25 21 17 13 16 18 20 23 22 21 20
20 11 2 11 14 12 17 16 23 17 2 4 18 11 17 16 11 9 5 9 4 4 6 7 5 5 12 11 8 11 12 14 21 33 33 28 26 18 17 19 19 22 25 24
17 4 11 20 17 12 27 12 13 8 15 15 13 8 17 7 2 4 3 6 3 2 5 8 8 11 9 7 4 1 9 15 21 30 31 31 22 17 15 18 19 22 25 26
6 10 15 21 11 13 14 10 8 8 11 14 5 21 23 10 11 8 5 7 6 6 8 10 8 12 12 15 12 7 12 19 26 27 34 33 28 23 16 22 21 23 27 26
24 4 11 6 10 2 10 8 10 8 8 19 11 11 21 17 14 13 17 15 11 12 13 15 13 12 12 14 19 15 17 17 19 26 30 33 33 32 21 24 22 20 24 26
18 16 9 7 8 10 9 17 5 7 4 13 6 11 15 14 8 7 9 14 15 15 20 22 20 18 17 20 20 21 23 19 14 23 27 29 24 30 28 30 25 24 20 23
11 18 17 6 9 14 10 10 14 21 12 3 10 6 14 11 9 7 5 9 16 21 23 25 24 23 23 14 16 23 29 29 25 26 25 29 28 27 25 29 26 22 21 24
7 7 13 4 4 10 10 13 9 13 9 20 3 11 11 17 14 11 14 15 20 22 24 25 26 27 27 21 15 10 22 25 27 29 28 30 29 28 25 23 32 26 29 26
6 17 6 10 8 6 13 5 10 15 13 16 3 10 12 18 14 9 12 18 19 19 22 23 27 30 31 28 21 12 15 20 24 22 21 22 22 26 24 21 19 24 27 30
20 12 7 11 12 13 8 15 7 10 10 18 14 9 12 16 12 10 14 14 14 15 19 24 25 27 30 32 27 19 11 11 12 13 16 17 22 24 23 25 19 16 25 31
18 9 14 7 9 4 9 9 7 14 4 8 16 20 9 13 10 11 12 10 11 14 20 22 22 24 27 30 29 23 13 11 11 13 15 16 17 20 24 26 27 20 26 26
16 11 14 18 19 13 12 7 2 5 9 22 18 6 7 19 14 10 8 6 6 14 18 19 21 23 25 29 29 22 15 11 15 14 15 13 14 18 21 21 23 23 24 28
13 7 15 19 19 12 8 15 11 11 13 19 20 9 14 17 17 12 6 2 12 14 16 18 20 23 25 29 28 17 12 16 17 15 15 15 15 15 19 19 20 24 24 22
8 12 12 10 8 12 14 15 12 17 22 18 29 19 9 17 15 11 5 3 7 12 16 20 20 21 25 27 22 12 15 18 15 14 15 17 20 15 14 17 19 22 22 23
9 8 10 15 10 14 17 18 18 21 24 24 25 23 6 17 14 13 7 4 8 12 17 18 19 20 24 23 16 11 15 15 13 12 10 13 17 18 18 15 10 10 11 18
9 6 10 20 3 12 19 25 21 18 18 20 21 17 19 20 19 12 7 6 8 11 16 18 18 19 20 16 10 10 12 11 10 10 12 14 15 16 18 17 13 8 11 12
9 9 5 9 6 20 7 2 9 17 24 20 22 14 18 19 14 11 6 5 7 9 14 15 16 17 14 9 10 11 13 8 8 10 10 13 12 14 17 16 16 15 12 11
8 11 6 10 16 14 25 12 9 12 16 11 18 15 21 14 12 17 11 9 8 8 10 12 12 10 9 9 13 12 11 9 8 6 7 11 12 14 17 18 18 18 16 15
8 8 13 6 14 21 21 8 8 7 19 10 20 21 26 22 17 9 12 12 11 9 9 10 10 9 9 12 12 11 14 8 7 5 7 9 10 14 18 19 19 20 19 20
12 9 15 11 14 16 15 11 15 14 4 8 19 24 29 23 18 10 11 13 14 13 12 11 9 10 11 11 11 10 10 9 9 7 11 13 16 23 20 23 23 22 22 24
14 13 14 6 14 22 8 12 15 15 7 3 15 24 33 32 19 19 17 17 17 17 15 14 13 14 13 11 10 12 11 10 7 9 13 15 18 20 18 22 21 20 19 22
12 8 11 7 15 4 3 30 15 18 17 8 13 23 31 31 31 27 26 25 22 22 20 18 16 16 13 11 10 12 15 11 11 12 12 13 17 16 18 19 18 18 21 24
9 7 9 5 15 12 21 21 28 30 33 26 17 22 28 34 30 31 30 30 28 27 25 20 18 16 14 12 10 12 12 12 12 15 14 14 13 20 16 16 18 20 22 24
9 14 12 14 24 18 5 10 17 25 25 28 34 32 33 34 35 33 33 35 35 31 27 23 22 19 16 14 11 11 11 12 11 12 15 16 15 17 17 19 20 20 19 19
22 23 18 20 13 9 22 21 34 31 24 20 23 26 33 37 40 37 38 38 40 37 31 27 24 22 21 17 14 12 12 10 12 13 14 17 16 19 20 23 22 24 21 23
Wind_Direction_850mb
141 283 18 0 0 353 326 303 301 63 43 297 5 316 108 162 213 176 207 200 215 268 187 145 52 45 52 74 71 91 197 224 220 223 213 225 240 248 238 230 225 225 227 239
237 242 24 335 338 309 308 303 277 193 152 288 3 335 65 140 120 145 197 194 146 136 180 180 63 43 48 57 83 107 161 208 220 219 215 219 248 261 247 246 238 236 238 237
281 339 0 295 289 269 275 311 310 314 69 186 306 168 120 125 133 132 130 175 152 51 226 228 268 15 32 30 62 123 165 186 209 220 231 245 259 273 260 248 251 249 245 240
271 66 258 287 273 305 294 358 276 260 274 352 2 340 111 150 96 185 137 139 57 20 335 252 254 259 309 347 335 179 153 192 217 230 225 238 228 234 243 237 239 233 246 241
272 269 266 277 7 314 330 308 240 220 265 294 150 283 104 158 137 80 83 72 55 4 346 349 295 264 282 282 287 272 213 215 222 234 232 247 243 251 262 236 238 250 241 247
273 291 267 4 31 305 133 160 196 198 275 265 78 299 107 79 47 68 65 61 53 29 0 357 332 298 289 264 262 239 229 225 243 243 249 255 256 266 249 229 228 234 241 249
199 223 147 206 168 158 249 219 223 258 302 290 123 252 47 78 54 19 37 50 39 14 9 359 354 343 320 285 257 233 238 251 285 255 253 269 269 264 268 227 233 223 236 233
259 169 177 154 302 338 241 298 307 304 292 0 153 264 96 78 68 112 101 50 32 12 7 7 8 10 5 352 263 238 245 261 290 284 261 273 275 271 259 233 226 231 228 238
224 228 118 47 160 288 121 246 16 288 211 267 48 148 137 140 114 118 81 51 39 39 36 31 26 23 19 16 11 290 249 262 276 285 258 273 278 280 256 247 252 239 238 241
265 275 104 121 183 115 289 68 231 201 276 289 142 240 121 174 136 102 68 63 65 46 31 25 16 14 9 4 358 323 283 287 294 294 284 274 265 278 256 249 258 242 245 253
241 255 199 203 206 336 180 209 249 298 292 308 293 71 80 117 103 94 91 84 67 40 22 11 10 10 8 6 356 346 329 320 314 313 309 280 267 272 259 256 256 265 261 259
199 249 249 292 81 297 293 327 275 284 162 242 300 296 89 126 124 125 114 93 56 31 14 6 3 4 4 3 2 355 358 2 350 348 328 309 285 273 266 262 258 257 262 265
171 210 244 201 184 182 238 170 256 285 280 272 294 29 127 134 146 152 132 103 57 3 9 2 2 2 359 356 355 355 5 6 355 349 349 328 311 287 276 262 250 263 284 275
190 207 260 297 350 329 210 211 218 242 278 318 267 305 149 165 169 165 156 11 12 358 1 1 358 355 353 351 351 0 11 7 356 3 0 344 330 306 289 274 259 251 272 271
222 239 233 274 263 241 277 268 216 248 280 276 303 316 155 185 181 172 165 352 347 352 350 352 348 347 346 347 347 351 6 357 6 5 6 22 16 2 326 305 288 276 290 278
190 243 262 255 229 240 251 263 261 272 281 281 274 273 151 170 178 187 190 255 322 347 344 342 338 338 341 340 336 341 0 354 358 358 5 2 3 7 12 9 349 302 279 262
204 176 233 266 172 254 251 260 285 276 275 265 269 334 154 178 202 199 204 256 318 329 333 335 332 335 331 335 331 335 348 338 344 0 353 358 19 27 24 22 23 0 314 292
187 197 239 287 219 246 340 73 281 280 281 265 256 266 194 193 195 203 218 289 295 311 324 327 327 327 320 316 314 323 327 316 336 355 9 26 30 23 17 16 10 2 341 323
269 227 195 245 242 284 285 184 226 233 290 236 246 210 194 187 202 222 226 235 257 285 305 314 316 313 303 295 309 313 311 298 325 345 19 17 2 348 351 352 354 347 340 326
192 251 247 169 274 279 305 126 186 196 265 144 206 203 198 193 231 143 184 220 233 253 274 292 290 294 301 292 302 302 297 286 310 320 350 344 340 336 330 328 326 324 322 321
174 207 239 247 276 289 335 158 162 239 28 127 193 207 203 210 262 132 182 211 222 237 254 267 266 286 283 275 284 294 292 277 281 294 328 324 324 331 329 329 323 317 312 306
236 237 237 219 268 282 58 159 241 2 339 266 212 210 211 220 220 210 214 221 227 234 247 254 256 274 269 269 276 291 286 264 298 314 317 317 319 324 320 330 330 320 317 320
237 280 300 272 306 47 237 252 262 281 294 306 276 232 222 224 228 229 230 229 232 236 245 247 252 266 267 267 273 288 292 280 277 301 305 313 321 323 330 334 334 338 325 324
185 197 243 281 269 273 285 292 269 277 266 280 279 263 236 234 241 239 239 236 236 238 239 242 245 254 255 257 273 280 280 280 276 287 299 309 317 324 330 338 325 327 326 324
328 160 238 255 266 290 136 12 350 329 300 279 269 273 244 241 248 248 247 243 241 239 238 232 237 242 240 250 269 273 277 273 269 273 285 298 309 309 319 322 322 331 325 332
212 252 239 273 12 305 297 313 320 312 311 302 285 267 253 246 251 253 251 248 241 235 232 229 232 230 231 239 256 265 261 260 265 271 290 295 307 312 318 320 324 323 331 350